When you browse on this site, cookies collect data to enhance your experience and personalize the content and advertising you see.
Visit our Privacy Policy to learn more. By continuing to use the site, you agree to this use of cookies and data.
  • In Portugal
  • List of Countries
  • For 7 days
  • Water Temperature
  • Satellite Maps
  • Weather Map
  • Weather Widgets
  • user-avatar
    Login

    Hourly Weather Zaafrana

    Today, 25 March, Monday

    Time Temperature Precipitation Wind Pressure Humidity
    00:00 +15°C° 0 mm 5 mps 740 mmHg 53%
    01:00 +14°C° 0 mm 5 mps 740 mmHg 56%
    02:00 +13°C° 0 mm 3 mps 739 mmHg 58%
    03:00 +13°C° 0 mm 3 mps 739 mmHg 60%
    04:00 +13°C° 0 mm 3 mps 739 mmHg 62%
    05:00 +12°C° 0 mm 3 mps 740 mmHg 64%
    06:00 +13°C° 0 mm 4 mps 740 mmHg 61%
    07:00 +13°C° 0 mm 4 mps 740 mmHg 58%
    08:00 +14°C° 0 mm 4 mps 740 mmHg 53%
    09:00 +15°C° 0 mm 5 mps 740 mmHg 47%
    10:00 +16°C° 0 mm 5 mps 740 mmHg 40%
    11:00 +19°C° 0 mm 6 mps 741 mmHg 33%
    12:00 +19°C° 0 mm 6 mps 741 mmHg 32%
    13:00 +18°C° 0 mm 7 mps 741 mmHg 32%
    14:00 +20°C° 0 mm 7 mps 740 mmHg 29%
    15:00 +20°C° 0 mm 6 mps 740 mmHg 29%
    16:00 +20°C° 0 mm 6 mps 740 mmHg 30%
    17:00 +20°C° 0 mm 6 mps 741 mmHg 30%
    18:00 +19°C° 0 mm 5 mps 741 mmHg 34%
    19:00 +17°C° 0 mm 5 mps 742 mmHg 38%
    20:00 +17°C° 0 mm 4 mps 742 mmHg 43%
    21:00 +17°C° 0 mm 4 mps 742 mmHg 45%
    22:00 +15°C° 0 mm 4 mps 743 mmHg 48%
    23:00 +14°C° 0 mm 3 mps 743 mmHg 51%

    Tomorrow, 26 March, Tuesday

    Time Temperature Precipitation Wind Pressure Humidity
    00:00 +14°C° 0 mm 3 mps 743 mmHg 53%
    01:00 +14°C° 0 mm 2 mps 743 mmHg 56%
    02:00 +14°C° 0 mm 2 mps 744 mmHg 58%
    03:00 +13°C° 0 mm 2 mps 744 mmHg 59%
    04:00 +13°C° 0 mm 2 mps 744 mmHg 60%
    05:00 +13°C° 0 mm 2 mps 744 mmHg 62%
    06:00 +14°C° 0 mm 2 mps 745 mmHg 58%
    07:00 +15°C° 0 mm 2 mps 745 mmHg 55%
    08:00 +14°C° 0 mm 3 mps 746 mmHg 51%
    09:00 +17°C° 0 mm 3 mps 746 mmHg 45%
    10:00 +18°C° 0 mm 3 mps 746 mmHg 39%
    11:00 +19°C° 0 mm 4 mps 746 mmHg 33%
    12:00 +20°C° 0 mm 4 mps 746 mmHg 30%
    13:00 +21°C° 0 mm 4 mps 745 mmHg 28%
    14:00 +22°C° 0 mm 4 mps 745 mmHg 25%
    15:00 +22°C° 0 mm 3 mps 745 mmHg 25%
    16:00 +22°C° 0 mm 3 mps 745 mmHg 25%
    17:00 +22°C° 0 mm 3 mps 745 mmHg 24%
    18:00 +21°C° 0 mm 3 mps 745 mmHg 27%
    19:00 +20°C° 0 mm 2 mps 746 mmHg 29%
    20:00 +20°C° 0 mm 1 mps 746 mmHg 31%
    21:00 +19°C° 0 mm 1 mps 746 mmHg 32%
    22:00 +19°C° 0 mm 1 mps 747 mmHg 32%
    23:00 +18°C° 0 mm 1 mps 747 mmHg 32%

    Day after tomorrow, 27 March, Wednesday

    Time Temperature Precipitation Wind Pressure Humidity
    00:00 +18°C° 0 mm 1 mps 747 mmHg 34%
    01:00 +16°C° 0 mm 1 mps 747 mmHg 35%
    02:00 +16°C° 0 mm 1 mps 747 mmHg 36%
    03:00 +15°C° 0 mm 1 mps 748 mmHg 40%
    04:00 +15°C° 0 mm 1 mps 748 mmHg 45%
    05:00 +15°C° 0 mm 1 mps 748 mmHg 49%
    06:00 +16°C° 0 mm 1 mps 748 mmHg 47%
    07:00 +18°C° 0 mm 1 mps 749 mmHg 45%
    08:00 +19°C° 0 mm 1 mps 750 mmHg 43%
    09:00 +20°C° 0 mm 2 mps 750 mmHg 37%
    10:00 +21°C° 0 mm 2 mps 750 mmHg 32%
    11:00 +22°C° 0 mm 3 mps 750 mmHg 27%
    12:00 +22°C° 0 mm 3 mps 750 mmHg 25%
    13:00 +24°C° 0 mm 3 mps 749 mmHg 23%
    14:00 +25°C° 0 mm 4 mps 749 mmHg 22%
    15:00 +24°C° 0 mm 3 mps 749 mmHg 22%
    16:00 +24°C° 0 mm 3 mps 749 mmHg 22%
    17:00 +24°C° 0 mm 2 mps 748 mmHg 23%
    18:00 +23°C° 0 mm 2 mps 749 mmHg 26%
    19:00 +22°C° 0 mm 1 mps 749 mmHg 28%
    20:00 +21°C° 0 mm 1 mps 750 mmHg 31%
    21:00 +20°C° 0 mm 1 mps 750 mmHg 33%
    22:00 +20°C° 0 mm 1 mps 750 mmHg 35%
    23:00 +19°C° 0 mm 1 mps 750 mmHg 36%

    28 March, Thursday

    Time Temperature Precipitation Wind Pressure Humidity
    00:00 +18°C° 0 mm 1 mps 750 mmHg 43%
    01:00 +17°C° 0 mm 2 mps 750 mmHg 51%
    02:00 +16°C° 0 mm 2 mps 750 mmHg 58%
    03:00 +16°C° 0 mm 2 mps 750 mmHg 61%
    04:00 +16°C° 0 mm 2 mps 749 mmHg 64%
    05:00 +15°C° 0 mm 1 mps 749 mmHg 67%
    06:00 +16°C° 0 mm 1 mps 750 mmHg 62%
    07:00 +19°C° 0 mm 1 mps 750 mmHg 57%
    08:00 +20°C° 0 mm 1 mps 750 mmHg 52%
    09:00 +21°C° 0 mm 1 mps 750 mmHg 45%
    10:00 +22°C° 0 mm 1 mps 750 mmHg 37%
    11:00 +23°C° 0 mm 1 mps 750 mmHg 29%
    12:00 +24°C° 0 mm 1 mps 749 mmHg 26%
    13:00 +25°C° 0 mm 1 mps 748 mmHg 23%
    14:00 +26°C° 0 mm 2 mps 748 mmHg 20%
    15:00 +26°C° 0 mm 1 mps 747 mmHg 19%
    16:00 +26°C° 0 mm 1 mps 747 mmHg 19%
    17:00 +26°C° 0 mm 1 mps 746 mmHg 18%
    18:00 +25°C° 0 mm 1 mps 747 mmHg 19%
    19:00 +24°C° 0 mm 1 mps 747 mmHg 20%
    20:00 +21°C° 0 mm 0 mps 747 mmHg 21%
    21:00 +23°C° 0 mm 1 mps 747 mmHg 21%
    22:00 +22°C° 0 mm 1 mps 747 mmHg 21%
    23:00 +21°C° 0 mm 1 mps 747 mmHg 22%

    29 March, Friday

    Time Temperature Precipitation Wind Pressure Humidity
    00:00 +21°C° 0 mm 1 mps 746 mmHg 22%
    01:00 +20°C° 0 mm 1 mps 746 mmHg 22%
    02:00 +20°C° 0 mm 1 mps 745 mmHg 22%
    03:00 +20°C° 0 mm 1 mps 745 mmHg 22%
    04:00 +20°C° 0 mm 1 mps 744 mmHg 22%
    05:00 +19°C° 0 mm 2 mps 744 mmHg 23%
    06:00 +20°C° 0 mm 2 mps 744 mmHg 21%
    07:00 +23°C° 0 mm 2 mps 744 mmHg 19%
    08:00 +25°C° 0 mm 2 mps 744 mmHg 17%
    09:00 +26°C° 0 mm 2 mps 744 mmHg 16%
    10:00 +28°C° 0 mm 2 mps 744 mmHg 14%
    11:00 +29°C° 0 mm 3 mps 743 mmHg 13%
    12:00 +30°C° 0 mm 3 mps 742 mmHg 13%
    13:00 +31°C° 0 mm 3 mps 742 mmHg 13%
    14:00 +31°C° 0 mm 3 mps 741 mmHg 12%
    15:00 +32°C° 0 mm 4 mps 740 mmHg 12%
    16:00 +32°C° 0 mm 4 mps 740 mmHg 13%
    17:00 +32°C° 0 mm 4 mps 740 mmHg 13%
    18:00 +30°C° 0 mm 4 mps 740 mmHg 16%
    19:00 +29°C° 0 mm 4 mps 740 mmHg 19%
    20:00 +28°C° 0 mm 4 mps 740 mmHg 22%
    21:00 +27°C° 0 mm 4 mps 740 mmHg 24%
    22:00 +26°C° 0 mm 4 mps 740 mmHg 26%
    23:00 +25°C° 0 mm 4 mps 739 mmHg 28%

    30 March, Saturday

    Time Temperature Precipitation Wind Pressure Humidity
    00:00 +25°C° 0.1 mm 3 mps 739 mmHg 29%
    01:00 +25°C° 0.1 mm 2 mps 739 mmHg 29%
    02:00 +24°C° 0.1 mm 1 mps 739 mmHg 30%
    03:00 +23°C° 0 mm 2 mps 739 mmHg 38%
    04:00 +21°C° 0 mm 3 mps 739 mmHg 46%
    05:00 +20°C° 0 mm 4 mps 739 mmHg 54%
    06:00 +20°C° 0 mm 4 mps 740 mmHg 55%
    07:00 +20°C° 0 mm 4 mps 740 mmHg 57%
    08:00 +20°C° 0 mm 4 mps 741 mmHg 58%
    09:00 +21°C° 0 mm 4 mps 740 mmHg 53%
    10:00 +21°C° 0 mm 5 mps 740 mmHg 48%
    11:00 +22°C° 0 mm 6 mps 740 mmHg 43%
    12:00 +22°C° 0 mm 6 mps 740 mmHg 41%
    13:00 +22°C° 0 mm 7 mps 740 mmHg 39%
    14:00 +22°C° 0 mm 8 mps 739 mmHg 37%
    15:00 +21°C° 0 mm 8 mps 739 mmHg 37%
    16:00 +21°C° 0 mm 8 mps 739 mmHg 36%
    17:00 +21°C° 0 mm 8 mps 739 mmHg 35%
    18:00 +20°C° 0 mm 8 mps 740 mmHg 36%
    19:00 +18°C° 0 mm 7 mps 740 mmHg 37%
    20:00 +18°C° 0 mm 7 mps 740 mmHg 37%
    21:00 +17°C° 0 mm 6 mps 740 mmHg 39%
    22:00 +17°C° 0 mm 6 mps 740 mmHg 41%
    23:00 +16°C° 0 mm 6 mps 741 mmHg 44%
    Show more